| time (UTC) | temp F | wind direction | speed MPH | gust MPH | rain 1hr in | rain 24hr in | rain mn in | humidity % | barometer mb |
| 20260507071034 | 48 | 307 | 2.0 | 4.0 | 0.00 | 0.00 | 0.00 | 96 | 1010.7 |
| 20260507070025 | 48 | 275 | 3.0 | 5.0 | 0.00 | 0.00 | 0.00 | 96 | 1010.8 |
| 20260507065017 | 48 | 304 | 2.0 | 5.0 | 0.00 | 0.00 | 0.00 | 96 | 1010.6 |
| 20260507064029 | 48 | 282 | 2.0 | 6.0 | 0.00 | 0.00 | 0.00 | 96 | 1010.6 |
| 20260507063021 | 48 | 295 | 1.0 | 3.0 | 0.00 | 0.00 | 0.00 | 96 | 1010.4 |
| 20260507062032 | 48 | 300 | 2.0 | 6.0 | 0.00 | 0.00 | 0.00 | 96 | 1010.3 |
| 20260507061023 | 48 | 283 | 1.0 | 3.0 | 0.00 | 0.00 | 0.00 | 97 | 1010.3 |
| 20260507060035 | 48 | 278 | 1.0 | 5.0 | 0.00 | 0.00 | 0.00 | 97 | 1010.1 |
| 20260507055026 | 48 | 282 | 2.0 | 6.0 | 0.00 | 0.00 | 0.00 | 97 | 1009.9 |
| 20260507054018 | 48 | 293 | 3.0 | 7.0 | 0.00 | 0.00 | 0.00 | 97 | 1009.8 |
| 20260507053029 | 49 | 306 | 4.0 | 7.0 | 0.00 | 0.00 | 0.00 | 98 | 1009.7 |
| 20260507052020 | 49 | 20 | 2.0 | 4.0 | 0.00 | 0.00 | 0.00 | 98 | 1009.6 |
| 20260507051031 | 49 | 85 | 2.0 | 4.0 | 0.00 | 0.00 | 0.00 | 98 | 1009.3 |
| 20260507050022 | 49 | 102 | 2.0 | 6.0 | 0.00 | 0.00 | 0.00 | 98 | 1009.3 |
| 20260507045037 | 49 | 37 | 1.0 | 3.0 | 0.00 | 0.00 | 0.00 | 98 | 1009.3 |
| 20260507044025 | 49 | 110 | 1.0 | 4.0 | 0.00 | 0.00 | 0.00 | 98 | 1009.1 |
| 20260507043036 | 49 | 128 | 2.0 | 6.0 | 0.00 | 0.00 | 0.00 | 98 | 1009.0 |
| 20260507042027 | 49 | 116 | 2.0 | 5.0 | 0.00 | 0.00 | 0.00 | 98 | 1008.9 |
| 20260507041018 | 49 | 113 | 2.0 | 6.0 | 0.00 | 0.00 | 0.00 | 97 | 1008.9 |
| 20260507040030 | 49 | 109 | 3.0 | 8.0 | 0.00 | 0.00 | 0.00 | 97 | 1008.7 |
| 20260507035022 | 49 | 60 | 2.0 | 6.0 | 0.00 | 0.00 | 0.00 | 97 | 1008.8 |
| 20260507034033 | 49 | 97 | 2.0 | 5.0 | 0.00 | 0.00 | 0.00 | 97 | 1008.8 |
| 20260507033024 | 49 | 106 | 2.0 | 4.0 | 0.00 | 0.00 | 0.00 | 97 | 1008.7 |
| 20260507032019 | 49 | 92 | 2.0 | 4.0 | 0.00 | 0.00 | 0.00 | 97 | 1008.7 |
| 20260507031029 | 50 | 108 | 2.0 | 4.0 | 0.00 | 0.00 | 0.00 | 97 | 1008.7 |
| 20260507030020 | 50 | 117 | 2.0 | 4.0 | 0.00 | 0.00 | 0.00 | 97 | 1008.7 |
| 20260507025032 | 50 | 97 | 1.0 | 3.0 | 0.00 | 0.00 | 0.00 | 97 | 1008.7 |
| 20260507024023 | 50 | 83 | 1.0 | 3.0 | 0.00 | 0.00 | 0.00 | 97 | 1008.7 |
| 20260507023038 | 50 | 68 | 1.0 | 3.0 | 0.00 | 0.00 | 0.00 | 96 | 1008.8 |
| 20260507022026 | 50 | 85 | 2.0 | 4.0 | 0.00 | 0.00 | 0.00 | 97 | 1008.7 |
| 20260507021018 | 50 | 104 | 2.0 | 5.0 | 0.00 | 0.00 | 0.00 | 96 | 1008.7 |
| 20260507020030 | 50 | 84 | 2.0 | 4.0 | 0.00 | 0.00 | 0.00 | 96 | 1008.6 |
| 20260507015021 | 50 | 70 | 2.0 | 4.0 | 0.00 | 0.00 | 0.00 | 96 | 1008.7 |
| 20260507014033 | 50 | 78 | 2.0 | 4.0 | 0.00 | 0.00 | 0.00 | 96 | 1008.7 |
| 20260507013024 | 51 | 84 | 2.0 | 4.0 | 0.00 | 0.00 | 0.00 | 97 | 1008.5 |
| 20260507012035 | 50 | 130 | 1.0 | 3.0 | 0.00 | 0.00 | 0.00 | 96 | 1008.4 |
| 20260507011027 | 50 | 74 | 1.0 | 4.0 | 0.00 | 0.00 | 0.00 | 96 | 1008.3 |
| 20260507010018 | 50 | 86 | 2.0 | 3.0 | 0.00 | 0.00 | 0.00 | 96 | 1008.4 |
| 20260507005030 | 50 | 55 | 2.0 | 4.0 | 0.00 | 0.00 | 0.00 | 96 | 1008.4 |
| 20260507004021 | 51 | 38 | 2.0 | 4.0 | 0.00 | 0.00 | 0.00 | 96 | 1008.4 |
| 20260507003033 | 51 | 17 | 3.0 | 7.0 | 0.00 | 0.00 | 0.00 | 96 | 1008.3 |
| 20260507002024 | 51 | 210 | 1.0 | 4.0 | 0.00 | 0.00 | 0.00 | 95 | 1008.3 |
| 20260507001036 | 51 | 7 | 1.0 | 6.0 | 0.00 | 0.00 | 0.00 | 95 | 1008.4 |
| 20260507000027 | 51 | 180 | 2.0 | 8.0 | 0.00 | 0.00 | 0.00 | 95 | 1008.4 |
| 20260506235018 | 52 | 14 | 2.0 | 5.0 | 0.00 | 0.00 | 0.00 | 95 | 1008.6 |
| 20260506234031 | 52 | 73 | 1.0 | 4.0 | 0.00 | 0.00 | 0.00 | 95 | 1008.4 |
| 20260506233022 | 52 | 0.0 | 0.0 | 0.00 | 0.00 | 0.00 | 95 | 1008.3 | |
| 20260506232034 | 52 | 0.0 | 0.0 | 0.00 | 0.00 | 0.00 | 94 | 1008.4 | |
| 20260506231025 | 52 | 0.0 | 0.0 | 0.00 | 0.00 | 0.00 | 94 | 1008.3 | |
| 20260506230020 | 52 | 0.0 | 2.0 | 0.00 | 0.00 | 0.00 | 94 | 1008.2 | |
| 20260506225029 | 52 | 338 | 0.0 | 2.0 | 0.00 | 0.00 | 0.00 | 93 | 1008.3 |
| 20260506224020 | 52 | 76 | 0.0 | 2.0 | 0.00 | 0.00 | 0.00 | 91 | 1008.2 |
| 20260506223032 | 52 | 34 | 0.0 | 1.0 | 0.00 | 0.00 | 0.00 | 91 | 1008.2 |
| 20260506222024 | 52 | 65 | 0.0 | 2.0 | 0.00 | 0.00 | 0.00 | 89 | 1008.2 |
| 20260506221036 | 53 | 348 | 0.0 | 1.0 | 0.00 | 0.00 | 0.00 | 89 | 1008.1 |
| 20260506220029 | 53 | 0.0 | 0.0 | 0.00 | 0.00 | 0.00 | 89 | 1008.0 | |
| 20260506215018 | 53 | 0.0 | 0.0 | 0.00 | 0.00 | 0.00 | 88 | 1008.1 | |
| 20260506214028 | 53 | 0.0 | 0.0 | 0.00 | 0.00 | 0.00 | 86 | 1008.1 | |
| 20260506213020 | 54 | 150 | 0.0 | 2.0 | 0.00 | 0.00 | 0.00 | 84 | 1007.9 |
| 20260506212032 | 55 | 0.0 | 1.0 | 0.00 | 0.00 | 0.00 | 82 | 1007.8 | |
| 20260506211023 | 55 | 285 | 1.0 | 3.0 | 0.00 | 0.00 | 0.00 | 79 | 1007.7 |
| 20260506210035 | 55 | 273 | 2.0 | 4.0 | 0.00 | 0.00 | 0.00 | 77 | 1007.7 |
| 20260506205027 | 55 | 284 | 1.0 | 2.0 | 0.00 | 0.00 | 0.00 | 76 | 1007.7 |
| 20260506204018 | 55 | 326 | 1.0 | 3.0 | 0.00 | 0.00 | 0.00 | 76 | 1007.6 |
| 20260506203029 | 55 | 318 | 1.0 | 2.0 | 0.00 | 0.00 | 0.00 | 77 | 1007.7 |
| 20260506202021 | 56 | 0.0 | 0.0 | 0.00 | 0.00 | 0.00 | 77 | 1007.8 | |
| 20260506201032 | 56 | 0.0 | 1.0 | 0.00 | 0.00 | 0.00 | 75 | 1007.6 | |
| 20260506200027 | 56 | 269 | 0.0 | 3.0 | 0.00 | 0.00 | 0.00 | 73 | 1007.6 |
| 20260506195036 | 56 | 263 | 2.0 | 4.0 | 0.00 | 0.00 | 0.00 | 74 | 1007.5 |
| 20260506194027 | 56 | 261 | 1.0 | 4.0 | 0.00 | 0.00 | 0.00 | 76 | 1007.4 |
| 20260506193018 | 56 | 0.0 | 0.0 | 0.00 | 0.00 | 0.00 | 76 | 1007.2 | |
| 20260506192030 | 56 | 0.0 | 0.0 | 0.00 | 0.00 | 0.00 | 75 | 1007.1 | |
| 20260506191021 | 56 | 0.0 | 0.0 | 0.00 | 0.00 | 0.00 | 76 | 1006.9 | |
| 20260506190032 | 57 | 0.0 | 1.0 | 0.00 | 0.00 | 0.00 | 75 | 1006.7 | |
| 20260506185023 | 57 | 289 | 0.0 | 1.0 | 0.00 | 0.00 | 0.00 | 75 | 1006.7 |
| 20260506184035 | 57 | 0.0 | 1.0 | 0.00 | 0.00 | 0.00 | 73 | 1006.6 | |
| 20260506183027 | 57 | 0.0 | 1.0 | 0.00 | 0.00 | 0.00 | 73 | 1006.5 | |
| 20260506182018 | 58 | 0.0 | 1.0 | 0.00 | 0.00 | 0.00 | 73 | 1006.4 | |
| 20260506181029 | 58 | 281 | 1.0 | 2.0 | 0.00 | 0.00 | 0.00 | 72 | 1006.4 |
| 20260506180021 | 59 | 303 | 1.0 | 2.0 | 0.00 | 0.00 | 0.00 | 70 | 1006.4 |
| 20260506175035 | 59 | 145 | 0.0 | 2.0 | 0.00 | 0.00 | 0.00 | 68 | 1006.4 |
| 20260506174023 | 59 | 174 | 0.0 | 1.0 | 0.00 | 0.00 | 0.00 | 67 | 1006.4 |
| 20260506173038 | 60 | 201 | 0.0 | 1.0 | 0.00 | 0.00 | 0.00 | 67 | 1006.2 |
| 20260506172026 | 60 | 0.0 | 1.0 | 0.00 | 0.00 | 0.00 | 67 | 1006.0 | |
| 20260506171018 | 60 | 314 | 0.0 | 2.0 | 0.00 | 0.00 | 0.00 | 66 | 1006.0 |
| 20260506170029 | 60 | 0.0 | 1.0 | 0.00 | 0.00 | 0.00 | 64 | 1005.9 | |
| 20260506165021 | 60 | 264 | 0.0 | 2.0 | 0.00 | 0.00 | 0.00 | 63 | 1006.1 |
| 20260506164036 | 60 | 35 | 0.0 | 1.0 | 0.00 | 0.00 | 0.00 | 63 | 1006.1 |
| 20260506163024 | 61 | 319 | 0.0 | 2.0 | 0.00 | 0.00 | 0.00 | 62 | 1006.2 |
| 20260506162036 | 61 | 275 | 0.0 | 3.0 | 0.00 | 0.00 | 0.00 | 62 | 1006.2 |
| 20260506161028 | 61 | 336 | 0.0 | 2.0 | 0.00 | 0.00 | 0.00 | 59 | 1006.1 |
| 20260506160019 | 62 | 328 | 1.0 | 2.0 | 0.00 | 0.00 | 0.00 | 59 | 1006.2 |
| 20260506155031 | 62 | 330 | 1.0 | 3.0 | 0.00 | 0.00 | 0.00 | 58 | 1006.1 |
| 20260506154022 | 62 | 149 | 1.0 | 4.0 | 0.00 | 0.00 | 0.00 | 54 | 1006.1 |
| 20260506153034 | 62 | 18 | 1.0 | 2.0 | 0.00 | 0.00 | 0.00 | 56 | 1006.2 |
| 20260506152025 | 62 | 352 | 0.0 | 2.0 | 0.00 | 0.00 | 0.00 | 57 | 1006.3 |
| 20260506151020 | 62 | 3 | 1.0 | 3.0 | 0.00 | 0.00 | 0.00 | 58 | 1006.4 |
| 20260506150029 | 62 | 163 | 1.0 | 3.0 | 0.00 | 0.00 | 0.00 | 58 | 1006.4 |
| 20260506145020 | 62 | 312 | 1.0 | 2.0 | 0.00 | 0.00 | 0.00 | 58 | 1006.5 |
| 20260506144032 | 62 | 330 | 2.0 | 5.0 | 0.00 | 0.00 | 0.00 | 57 | 1006.6 |
| 20260506143024 | 62 | 7 | 1.0 | 4.0 | 0.00 | 0.00 | 0.00 | 56 | 1006.5 |
| 20260506142036 | 63 | 318 | 1.0 | 4.0 | 0.00 | 0.00 | 0.00 | 56 | 1006.5 |
| 20260506141027 | 62 | 310 | 1.0 | 3.0 | 0.00 | 0.00 | 0.00 | 56 | 1006.4 |
| 20260506140018 | 62 | 135 | 1.0 | 3.0 | 0.00 | 0.00 | 0.00 | 58 | 1006.5 |
| 20260506135030 | 62 | 34 | 1.0 | 3.0 | 0.00 | 0.00 | 0.00 | 56 | 1006.6 |
| 20260506134022 | 61 | 120 | 1.0 | 3.0 | 0.00 | 0.00 | 0.00 | 58 | 1006.7 |
| 20260506133033 | 62 | 85 | 2.0 | 4.0 | 0.00 | 0.00 | 0.00 | 56 | 1006.8 |
| 20260506132024 | 62 | 7 | 1.0 | 3.0 | 0.00 | 0.00 | 0.00 | 59 | 1006.8 |
| 20260506131036 | 61 | 137 | 1.0 | 4.0 | 0.00 | 0.00 | 0.00 | 56 | 1006.8 |
| 20260506130027 | 61 | 327 | 1.0 | 2.0 | 0.00 | 0.00 | 0.00 | 58 | 1006.9 |
| 20260506125019 | 62 | 141 | 2.0 | 5.0 | 0.00 | 0.00 | 0.00 | 56 | 1006.9 |
| 20260506124031 | 62 | 159 | 2.0 | 5.0 | 0.00 | 0.00 | 0.00 | 59 | 1006.9 |
| 20260506123022 | 62 | 123 | 1.0 | 5.0 | 0.00 | 0.00 | 0.00 | 58 | 1007.0 |
| 20260506122034 | 61 | 132 | 2.0 | 4.0 | 0.00 | 0.00 | 0.00 | 60 | 1006.9 |
| 20260506121528 | 62 | 166 | 1.0 | 5.0 | 0.00 | 0.00 | 0.00 | 62 | 1007.1 |
| 20260506120519 | 61 | 132 | 2.0 | 9.0 | 0.00 | 0.00 | 0.00 | 65 | 1007.2 |
| 20260506120027 | 60 | 152 | 1.0 | 5.0 | 0.00 | 0.00 | 0.00 | 68 | 1007.1 |
| 20260506115019 | 59 | 342 | 1.0 | 3.0 | 0.00 | 0.00 | 0.00 | 71 | 1007.2 |
| 20260506114034 | 59 | 127 | 2.0 | 5.0 | 0.00 | 0.00 | 0.00 | 70 | 1007.2 |
| 20260506113026 | 59 | 115 | 1.0 | 5.0 | 0.00 | 0.00 | 0.00 | 71 | 1007.2 |
| 20260506112017 | 59 | 135 | 1.0 | 3.0 | 0.00 | 0.00 | 0.00 | 71 | 1007.2 |
| 20260506111030 | 58 | 138 | 1.0 | 5.0 | 0.00 | 0.00 | 0.00 | 71 | 1007.2 |
| 20260506110021 | 58 | 31 | 1.0 | 2.0 | 0.00 | 0.00 | 0.00 | 73 | 1007.2 |
| 20260506105033 | 59 | 26 | 1.0 | 4.0 | 0.00 | 0.00 | 0.00 | 73 | 1007.3 |
| 20260506104025 | 60 | 328 | 1.0 | 3.0 | 0.00 | 0.00 | 0.00 | 71 | 1007.2 |
| 20260506103018 | 59 | 22 | 2.0 | 3.0 | 0.00 | 0.00 | 0.00 | 70 | 1007.3 |
| 20260506102028 | 59 | 18 | 1.0 | 3.0 | 0.00 | 0.00 | 0.00 | 72 | 1007.3 |
| 20260506101020 | 58 | 78 | 2.0 | 6.0 | 0.00 | 0.00 | 0.00 | 73 | 1007.3 |
| 20260506100032 | 56 | 86 | 2.0 | 6.0 | 0.00 | 0.00 | 0.00 | 77 | 1007.3 |
| 20260506095023 | 55 | 54 | 1.0 | 2.0 | 0.00 | 0.00 | 0.00 | 81 | 1007.3 |
| 20260506094035 | 56 | 47 | 1.0 | 4.0 | 0.00 | 0.00 | 0.00 | 79 | 1007.4 |
| 20260506093026 | 57 | 81 | 1.0 | 3.0 | 0.00 | 0.00 | 0.00 | 75 | 1007.4 |
| 20260506092020 | 58 | 126 | 2.0 | 5.0 | 0.00 | 0.00 | 0.00 | 73 | 1007.4 |
| 20260506091029 | 58 | 105 | 2.0 | 8.0 | 0.00 | 0.00 | 0.00 | 74 | 1007.2 |
| 20260506090020 | 56 | 93 | 2.0 | 8.0 | 0.00 | 0.00 | 0.00 | 77 | 1007.2 |
| 20260506085032 | 56 | 125 | 3.0 | 7.0 | 0.00 | 0.00 | 0.00 | 78 | 1007.0 |
| 20260506084023 | 55 | 110 | 2.0 | 6.0 | 0.00 | 0.00 | 0.00 | 80 | 1007.1 |
| 20260506083035 | 56 | 79 | 2.0 | 5.0 | 0.00 | 0.00 | 0.00 | 77 | 1006.9 |
| 20260506082027 | 55 | 59 | 1.0 | 4.0 | 0.00 | 0.00 | 0.00 | 79 | 1007.0 |
| 20260506081534 | 55 | 130 | 4.0 | 6.0 | 0.00 | 0.00 | 0.00 | 79 | 1006.8 |
| 20260506080518 | 57 | 110 | 3.0 | 7.0 | 0.00 | 0.00 | 0.00 | 78 | 1006.8 |
| 20260506072525 | 54 | 61 | 3.0 | 4.0 | 0.00 | 0.00 | 0.00 | 87 | 1006.6 |